KG5APU Weather Reports


Display with metric or nautical units.
time (UTC)temp
F
wind
direction
speed
MPH
gust
MPH
rain 1hr
in
rain 24hr
in
rain mn
in
humidity
%
barometer
mb
20260509043514 69 174 0.0 1.0 0.00 0.02 0.02 90 1010.6
20260509042512 70 147 2.0 3.0 0.00 0.02 0.02 90 1010.2
20260509041511 71 195 5.0 8.0 0.12 0.02 0.02 88 1009.8
20260509040507 71 163 2.0 3.0 0.00 0.00 0.00 84 1010.7
20260509035506 71 156 0.0 0.0 0.00 0.00 0.00 84 1011.4
20260509034501 71 150 0.0 0.0 0.00 0.00 0.00 84 1011.6
20260509033500 71 149 0.0 0.0 0.00 0.00 0.00 85 1011.6
20260509032500 71 135 0.0 0.0 0.00 0.00 0.00 84 1011.3
20260509031500 71 160 0.0 0.0 0.00 0.00 0.00 84 1010.8
20260509030456 71 158 0.0 0.0 0.00 0.00 0.00 83 1010.9
20260509025454 72 154 0.0 0.0 0.00 0.00 0.00 83 1010.9
20260509024452 72 155 1.0 1.0 0.00 0.00 0.00 83 1010.6
20260509023452 71 158 0.0 0.0 0.00 0.00 0.00 82 1010.1
20260509022451 71 157 1.0 1.0 0.00 0.00 0.00 82 1009.9
20260509021451 71 161 1.0 1.0 0.00 0.00 0.00 82 1009.9
20260509020447 72 159 0.0 0.0 0.00 0.00 0.00 81 1009.9
20260509015442 72 159 0.0 0.0 0.00 0.00 0.00 80 1010.0
20260509014441 72 162 0.0 0.0 0.00 0.00 0.00 79 1009.9
20260509013440 72 164 0.0 0.0 0.00 0.00 0.00 79 1009.5
20260509012438 72 162 0.0 0.0 0.00 0.00 0.00 79 1009.6
20260509011438 72 134 3.0 5.0 0.00 0.00 0.00 78 1009.5
20260509010433 72 168 0.0 0.0 0.00 0.00 0.00 78 1009.3
20260509005428 73 171 0.0 1.0 0.00 0.00 0.00 76 1009.3
20260509004425 73 172 0.0 0.0 0.00 0.00 0.00 75 1009.1
20260509003421 74 175 0.0 1.0 0.00 0.00 0.00 74 1008.9
20260509002415 74 211 1.0 2.0 0.00 0.00 0.00 74 1008.9
20260509001414 75 167 2.0 2.0 0.00 0.00 0.00 73 1008.9
20260509000410 74 169 1.0 2.0 0.00 0.00 0.00 73 1009.1
20260508235409 75 134 3.0 3.0 0.00 0.00 0.00 71 1009.1
20260508234408 75 170 1.0 2.0 0.00 0.00 0.00 71 1009.4
20260508233405 75 203 0.0 1.0 0.00 0.00 0.00 71 1009.5
20260508232404 76 157 1.0 1.0 0.00 0.00 0.00 71 1009.6
20260508231358 75 224 2.0 2.0 0.00 0.00 0.00 72 1009.5
20260508230358 75 159 3.0 5.0 0.00 0.00 0.00 71 1009.6
20260508225357 76 164 5.0 6.0 0.00 0.00 0.00 70 1009.7
20260508224353 77 167 1.0 2.0 0.00 0.00 0.00 70 1009.6
20260508223347 77 128 3.0 3.0 0.00 0.00 0.00 69 1009.5
20260508222342 78 195 3.0 5.0 0.00 0.00 0.00 68 1009.5
20260508221339 78 208 4.0 6.0 0.00 0.00 0.00 66 1009.3
20260508220338 79 210 4.0 6.0 0.00 0.00 0.00 66 1009.3
20260508215338 78 173 2.0 3.0 0.00 0.00 0.00 66 1009.0
20260508214332 78 158 3.0 3.0 0.00 0.00 0.00 65 1008.9
20260508213331 78 173 6.0 8.0 0.00 0.00 0.00 64 1009.3
20260508212329 78 175 5.0 7.0 0.00 0.00 0.00 66 1009.7
20260508211326 75 200 4.0 6.0 0.00 0.00 0.00 69 1010.1
20260508210321 74 216 2.0 3.0 0.00 0.00 0.00 71 1010.9
20260508205320 74 211 4.0 6.0 0.00 0.00 0.00 71 1010.6
20260508204319 75 189 4.0 6.0 0.00 0.00 0.00 68 1011.2
20260508203317 76 207 7.0 8.0 0.00 0.00 0.00 67 1011.2
20260508202316 77 176 5.0 6.0 0.00 0.00 0.00 66 1011.3
20260508201316 78 166 3.0 5.0 0.00 0.00 0.00 64 1011.1
20260508200315 79 211 5.0 7.0 0.00 0.00 0.00 62 1011.3
20260508195313 78 166 3.0 6.0 0.00 0.00 0.00 63 1011.3
20260508194313 78 170 2.0 3.0 0.00 0.00 0.00 65 1011.5
20260508193312 78 202 3.0 6.0 0.00 0.00 0.00 65 1011.4
20260508192312 78 196 5.0 7.0 0.00 0.00 0.00 63 1011.5
20260508191306 79 172 4.0 5.0 0.00 0.00 0.00 63 1012.0
20260508190305 80 201 2.0 2.0 0.00 0.00 0.00 62 1011.8
20260508185259 79 180 1.0 2.0 0.00 0.00 0.00 62 1011.9
20260508184259 77 159 4.0 5.0 0.00 0.00 0.00 63 1012.1
20260508183258 77 164 3.0 5.0 0.00 0.00 0.00 63 1012.2
20260508182257 76 146 2.0 3.0 0.00 0.00 0.00 65 1012.3
20260508181256 77 124 0.0 1.0 0.00 0.00 0.00 64 1012.6
20260508180256 76 196 1.0 1.0 0.00 0.00 0.00 62 1012.7
20260508175254 75 148 2.0 2.0 0.00 0.00 0.00 64 1013.0
20260508174250 76 164 4.0 5.0 0.00 0.00 0.00 62 1013.1
20260508173248 75 174 1.0 2.0 0.00 0.00 0.00 63 1013.2
20260508172248 73 185 3.0 5.0 0.00 0.00 0.00 68 1013.6
20260508171246 72 160 3.0 5.0 0.00 0.00 0.00 66 1013.6
20260508170241 73 145 2.0 3.0 0.00 0.00 0.00 66 1013.7
20260508165241 73 126 1.0 3.0 0.00 0.00 0.00 65 1014.2
20260508164239 73 194 3.0 3.0 0.00 0.00 0.00 66 1014.2
20260508163235 71 156 2.0 3.0 0.00 0.00 0.00 68 1014.7
20260508162234 71 165 3.0 6.0 0.00 0.00 0.00 68 1014.7
20260508161234 71 194 3.0 5.0 0.00 0.00 0.00 68 1014.8
20260508160230 70 178 4.0 5.0 0.00 0.00 0.00 69 1014.8
20260508155229 70 214 3.0 5.0 0.00 0.00 0.00 70 1015.2
20260508154229 71 224 7.0 10.0 0.00 0.00 0.00 69 1014.7
20260508153229 70 173 2.0 3.0 0.00 0.00 0.00 71 1015.0
20260508152226 70 167 1.0 2.0 0.00 0.00 0.00 72 1015.3
20260508151225 70 142 2.0 3.0 0.00 0.00 0.00 69 1015.1
20260508150225 70 145 3.0 3.0 0.00 0.00 0.00 72 1015.0
20260508145222 68 136 1.0 1.0 0.00 0.00 0.00 77 1014.9
20260508144218 69 149 2.0 2.0 0.00 0.00 0.00 72 1015.2
20260508143218 68 127 3.0 5.0 0.00 0.00 0.00 74 1015.4
20260508142217 67 155 1.0 1.0 0.00 0.00 0.00 77 1015.5
20260508141217 66 205 2.0 3.0 0.00 0.00 0.00 77 1015.2
20260508140215 65 153 1.0 2.0 0.00 0.00 0.00 80 1015.7
20260508135213 65 152 1.0 2.0 0.00 0.00 0.00 81 1015.3
20260508134213 64 158 1.0 2.0 0.00 0.00 0.00 82 1015.4
20260508133207 63 157 0.0 0.0 0.00 0.00 0.00 84 1015.5
20260508132207 63 155 1.0 2.0 0.00 0.00 0.00 85 1015.3
20260508131205 63 144 2.0 3.0 0.00 0.00 0.00 84 1015.9
20260508130205 63 147 0.0 1.0 0.00 0.00 0.00 85 1015.6
20260508125203 62 149 2.0 2.0 0.00 0.00 0.00 85 1015.9
20260508124158 62 166 1.0 1.0 0.00 0.00 0.00 87 1016.0
20260508123154 62 167 1.0 1.0 0.00 0.00 0.00 87 1015.7
20260508122153 62 164 1.0 1.0 0.00 0.00 0.00 88 1015.6
20260508121149 62 161 0.0 0.0 0.00 0.00 0.00 89 1015.8
20260508120144 62 182 2.0 2.0 0.00 0.00 0.00 88 1015.6
20260508115144 62 170 0.0 0.0 0.00 0.00 0.00 88 1015.9
20260508114143 62 165 2.0 2.0 0.00 0.00 0.00 88 1015.8
20260508113138 62 160 0.0 0.0 0.00 0.00 0.00 90 1015.5
20260508112137 62 158 0.0 0.0 0.00 0.00 0.00 90 1015.2
20260508111137 62 174 0.0 0.0 0.00 0.00 0.00 88 1016.1
20260508110136 62 156 0.0 0.0 0.00 0.00 0.00 88 1016.0
20260508105134 62 280 6.0 7.0 0.00 0.00 0.00 88 1016.9
20260508104134 62 156 0.0 0.0 0.00 0.00 0.00 90 1015.3
20260508103135 62 199 2.0 2.0 0.00 0.00 0.00 90 1015.1
20260508102130 62 167 1.0 2.0 0.00 0.00 0.00 89 1014.7
20260508101129 63 167 2.0 2.0 0.00 0.00 0.00 89 1014.3
20260508100125 62 162 1.0 2.0 0.00 0.00 0.00 88 1014.5
20260508095124 62 165 0.0 0.0 0.00 0.00 0.00 88 1014.6
20260508094123 62 192 0.0 0.0 0.00 0.00 0.00 89 1015.1
20260508093118 62 167 0.0 0.0 0.00 0.00 0.00 89 1014.8
20260508092114 62 164 0.0 0.0 0.00 0.00 0.00 89 1014.9
20260508091113 62 163 0.0 0.0 0.00 0.00 0.00 88 1015.2
20260508090108 62 213 3.0 5.0 0.00 0.00 0.00 88 1015.1
20260508085108 63 160 1.0 1.0 0.00 0.00 0.00 88 1014.7
20260508084108 63 180 2.0 3.0 0.00 0.00 0.00 87 1015.3
20260508083107 63 167 0.0 0.0 0.00 0.00 0.00 87 1015.5
20260508082106 62 157 0.0 0.0 0.00 0.00 0.00 87 1015.5
20260508081105 62 175 0.0 0.0 0.00 0.00 0.00 87 1016.3
20260508080101 62 184 0.0 0.0 0.00 0.00 0.00 87 1016.3
20260508075100 61 173 0.0 0.0 0.00 0.00 0.00 87 1016.2
20260508074100 61 160 0.0 0.0 0.00 0.00 0.00 87 1015.8
20260508073055 60 160 0.0 0.0 0.00 0.00 0.00 87 1015.9
20260508072054 61 160 0.0 0.0 0.00 0.00 0.00 87 1016.1
20260508071050 61 154 0.0 0.0 0.00 0.00 0.00 86 1016.0
20260508070045 61 159 0.0 0.0 0.00 0.00 0.00 85 1016.1
20260508065041 61 168 0.0 0.0 0.00 0.00 0.00 85 1016.4
20260508064036 61 162 0.0 0.0 0.00 0.00 0.00 86 1016.3
20260508063031 61 168 0.0 0.0 0.00 0.00 0.00 87 1017.0
20260508062030 60 171 0.0 0.0 0.00 0.00 0.00 88 1016.4
20260508061031 60 167 0.0 0.0 0.00 0.00 0.00 89 1016.7
20260508060025 60 163 0.0 0.0 0.00 0.00 0.00 88 1016.6
20260508055023 60 163 0.0 0.0 0.00 0.00 0.00 88 1016.4
20260508054023 60 163 0.0 0.0 0.00 0.00 0.00 87 1016.8
20260508053018 60 163 0.0 0.0 0.00 0.00 0.00 86 1016.8
20260508052017 60 163 0.0 0.0 0.00 0.00 0.00 84 1016.7
20260508051015 60 163 0.0 0.0 0.00 0.00 0.00 84 1016.7
20260508050015 61 163 0.0 0.0 0.00 0.00 0.00 83 1016.7
20260508045015 61 163 0.0 0.0 0.00 0.00 0.00 82 1016.8
20260508044014 61 163 0.0 0.0 0.00 0.00 0.00 82 1016.7